Flag for Liberia Weather past 2 weeks in Monrovia, Liberia

Now
77 °F

Passing clouds.


Feels Like: 78 °F
Forecast: 80 / 86 °F
Wind: No wind

Location: Roberts Field

Current Time: Jan 26, 2015 at 12:37:24 AM

Latest Report: Jan 26, 2015 at 12:00 AM


Visibility: N/A

Pressure: 29.89 "Hg

Humidity: 94%

Dew point: 75 °F

Location of MonroviaLocation

Historic Weather in Monrovia — Graph

°F

Monrovia temperature yesterday

Maximum temperature yesterday: 90 °F (at 1:00 PM)
Minimum temperature yesterday: 75 °F (at 12:00 AM)
Average temperature yesterday: 80 °F

Past Weeks' High & Low Weather Summary

 TemperatureHumidityPressure
High93 °F (Jan 13, 2:30 PM)100% (Jan 18, 3:30 AM)30.01 "Hg (Jan 18, 3:30 AM)
Low50 °F (Jan 19, 4:30 AM)33% (Jan 12, 2:30 PM)29.77 "Hg (Jan 20, 1:30 PM)
Average80 °F79%29.89 "Hg
* Reported Jan 10 11:30 PM — Jan 25 11:30 PM, Monrovia, Weather by CustomWeather, © 2014

Note: Actual official high and low records may vary slightly from our data, if they occured in-between our weather recording intervals... More about our weather records

Advertising

Monrovia weather history for previous 24 hours

 ConditionsComfort  
Time TempWeatherWind HumidityBarometerVisibility
11:30 PM
Jan 25
77 °FPassing clouds.No wind94%29.89 "HgN/A
11:00 PM77 °FPassing clouds.No wind94%29.89 "HgN/A
10:00 PM79 °FPassing clouds.No wind94%29.86 "HgN/A
9:00 PM79 °FPassing clouds.No wind94%29.86 "HgN/A
8:30 PM79 °FPassing clouds.No wind94%29.83 "HgN/A
8:00 PM81 °FPassing clouds.No wind84%29.83 "HgN/A
7:30 PM81 °FPassing clouds.No wind84%29.80 "HgN/A
7:00 PM81 °FPassing clouds.No wind84%29.80 "HgN/A
6:30 PM82 °FPassing clouds.3 mph84%29.80 "HgN/A
6:00 PM86 °FPassing clouds.6 mph70%29.77 "HgN/A
5:30 PM88 °FPassing clouds.8 mph66%29.77 "HgN/A
5:00 PM88 °FPassing clouds.9 mph62%29.77 "HgN/A
4:30 PM88 °FScattered clouds.10 mph62%29.77 "HgN/A
4:00 PM90 °FScattered clouds.12 mph63%29.77 "HgN/A
3:30 PM90 °FPartly sunny.15 mph63%29.80 "HgN/A
2:00 PM90 °FPartly sunny.9 mph67%29.83 "HgN/A
1:00 PM90 °FPartly sunny.7 mph63%29.83 "HgN/A
12:00 PM88 °FPartly sunny.12 mph70%29.89 "HgN/A
11:00 AM84 °FPartly sunny.No wind79%29.89 "HgN/A
10:30 AM84 °FScattered clouds.9 mph79%29.89 "HgN/A
10:00 AM82 °FScattered clouds.3 mph84%29.89 "HgN/A
9:30 AM81 °FScattered clouds.No wind89%29.89 "HgN/A
9:00 AM79 °FPartly sunny.No wind94%29.89 "HgN/A
8:30 AM79 °FPartly sunny.No wind94%29.89 "Hg4 mi
8:00 AM77 °FFog.No wind94%29.86 "Hg1 mi
7:30 AM75 °FFog.No wind100%29.86 "Hg1 mi
7:00 AM75 °FFog.6 mph94%29.86 "Hg1 mi
6:30 AM75 °FFog.6 mph94%29.86 "Hg3 mi
6:00 AM75 °FFog.6 mph94%29.86 "Hg3 mi
5:00 AM75 °FPassing clouds.No wind94%29.83 "Hg5 mi
4:30 AM75 °FPassing clouds.3 mph94%29.83 "Hg5 mi
4:00 AM75 °FPassing clouds.3 mph94%29.83 "Hg5 mi
3:30 AM75 °FPassing clouds.No wind94%29.83 "Hg5 mi
2:30 AM75 °FPassing clouds.No wind94%29.83 "HgN/A
2:00 AM75 °FPassing clouds.No wind94%29.83 "HgN/A
1:30 AM75 °FPassing clouds.No wind94%29.86 "HgN/A
1:00 AM75 °FPassing clouds.No wind94%29.86 "HgN/A
12:30 AM75 °FPassing clouds.No wind94%29.86 "HgN/A
12:00 AM75 °FPassing clouds.No wind94%29.86 "HgN/A
Weather by CustomWeather, © 2014

See weather overviewHow to use our weather pages